This is the latest recevied weather packets stored in our database for station/object CE3JSG-13. If no packets are shown the sender has not sent any weather packets the latest 10 day(s).
| Time | Temp. | Humidity | Pressure | Rain* | Wind** | Luminosity | Snow |
|---|---|---|---|---|---|---|---|
| 1777565655 | 24.44° C | 38% | 1010.5 hPa | - | - | - | - |
| 1777565235 | 24.44° C | 38% | 1010.5 hPa | - | - | - | - |
| 1777564815 | 24.44° C | 38% | 1011 hPa | - | - | - | - |
| 1777564395 | 24.44° C | 38% | 1010.2 hPa | - | - | - | - |
| 1777563975 | 23.89° C | 38% | 1010.7 hPa | - | - | - | - |
| 1777563555 | 23.89° C | 38% | 1010.9 hPa | - | - | - | - |
| 1777563135 | 23.89° C | 40% | 1009.7 hPa | - | - | - | - |
| 1777562715 | 23.33° C | 41% | 1011.4 hPa | - | - | - | - |
| 1777562295 | 23.33° C | 42% | 1009.7 hPa | - | - | - | - |
| 1777561875 | 22.78° C | 43% | 1010.4 hPa | - | - | - | - |
| 1777561455 | 22.22° C | 44% | 1010.9 hPa | - | - | - | - |
| 1777561035 | 21.67° C | 45% | 1011.4 hPa | - | - | - | - |
| 1777560615 | 22.22° C | 44% | 1010.9 hPa | - | - | - | - |
| 1777560195 | 21.67° C | 44% | 1011.1 hPa | - | - | - | - |
| 1777559775 | 21.67° C | 44% | 1011 hPa | - | - | - | - |
| 1777559355 | 21.67° C | 44% | 1010.4 hPa | - | - | - | - |
| 1777558935 | 21.11° C | 45% | 1010.3 hPa | - | - | - | - |
| 1777558515 | 20.56° C | 46% | 1010 hPa | - | - | - | - |
| 1777558095 | 20° C | 48% | 1010.8 hPa | - | - | - | - |
| 1777557675 | 20° C | 49% | 1010.6 hPa | - | - | - | - |
| 1777557255 | 19.44° C | 50% | 1009.7 hPa | - | - | - | - |
| 1777556835 | 18.89° C | 51% | 1010.3 hPa | - | - | - | - |
| 1777556415 | 18.33° C | 53% | 1011.1 hPa | - | - | - | - |
| 1777555995 | 18.33° C | 53% | 1010.5 hPa | - | - | - | - |
| 1777555575 | 17.78° C | 55% | 1009.5 hPa | - | - | - | - |
* Rain since midnight (hover to see other rain measurements)
** Current wind speed in m/s (hover to see current wind gust speed)